Weather History for Haines, AK

Change the Weather History Date:

Monday, September 5, 2011

  Actual Average Record
Temperature  
Mean Temperature 50 °F -  
Max Temperature 53 °F 56 °F 78 °F (1977)
Min Temperature 48 °F 46 °F 36 °F (1976)
Degree Days  
Heating Degree Days 15    
Moisture  
Dew Point 48 °F    
Average Humidity 89    
Maximum Humidity 100    
Minimum Humidity 82    
Precipitation  
Precipitation 1.95 in - - ()
Sea Level Pressure  
Sea Level Pressure 29.52 in    
Wind  
Wind Speed 11 mph (East)    
Max Wind Speed 16 mph    
Max Gust Speed 26 mph    
Visibility 6 miles    
Events Rain    
Averages and records for this station are not official NWS values.
T = Trace of Precipitation, MM = Missing Value Source: NWS Daily Summary

Daily Weather History Graph

Daily Weather History Graph

Search for Another Location

Airport:

Trip Planner

Search our weather history database for the weather conditions in past years. The results will help you decide how hot, cold, wet, or windy it might be!

Date:

Astronomy

Sep. 05, 2011 Rise Set
Actual Time 6:07 AM AKDT 7:52 PM AKDT
Civil Twilight 5:24 AM AKDT 8:34 PM AKDT
Nautical Twilight 4:30 AM AKDT 9:28 PM AKDT
Astronomical Twilight 3:24 AM AKDT 10:33 PM AKDT
Moon 4:59 PM AKDT (9/5) 11:18 PM AKDT (9/5)
Length of Visible Light 15h 09m
Length of Day
13h 44m
Waxing Gibbous, 62% of the Moon is Illuminated
Sep 5
Waxing Gibbous
Sep 12
Full
Sep 20
Last Quarter
Sep 27
New
Oct 3
First Quarter

Hourly Weather History & Observations

Time (AKDT) Temp. Dew Point Humidity Pressure Visibility Wind Dir Wind Speed Gust Speed Precip Events Conditions
12:45 AM 51.8 °F 46.4 °F 82% 29.64 in 10.0 mi East 12.7 mph 24.2 mph N/A   Overcast
12:54 AM 51.1 °F 46.9 °F 86% 29.65 in 10.0 mi East 12.7 mph 24.2 mph N/A   Overcast
1:25 AM 51.8 °F 48.2 °F 88% 29.64 in 10.0 mi ENE 13.8 mph 21.9 mph N/A   Overcast
1:48 AM 51.8 °F 46.4 °F 82% 29.64 in 10.0 mi ENE 13.8 mph 24.2 mph N/A   Overcast
1:54 AM 51.1 °F 46.9 °F 86% 29.65 in 10.0 mi East 15.0 mph 24.2 mph N/A   Overcast
2:12 AM 51.8 °F 46.4 °F 82% 29.63 in 10.0 mi East 11.5 mph 19.6 mph N/A   Overcast
2:54 AM 51.1 °F 46.9 °F 86% 29.64 in 10.0 mi East 10.4 mph 20.7 mph N/A   Overcast
3:31 AM 51.8 °F 46.4 °F 82% 29.62 in 10.0 mi East 13.8 mph 21.9 mph N/A   Overcast
3:54 AM 50.0 °F 46.9 °F 89% 29.62 in 10.0 mi East 16.1 mph 21.9 mph N/A   Overcast
4:54 AM 51.1 °F 46.9 °F 86% 29.61 in 10.0 mi East 12.7 mph 18.4 mph N/A   Overcast
5:54 AM 50.0 °F 46.9 °F 89% 29.60 in 10.0 mi East 10.4 mph 19.6 mph 0.00 in   Overcast
7:54 AM 50.0 °F 46.9 °F 89% 29.59 in 7.0 mi ENE 12.7 mph 24.2 mph 0.00 in Rain Light Rain
8:54 AM 50.0 °F 46.9 °F 89% 29.60 in 3.0 mi ENE 15.0 mph 21.9 mph 0.02 in Rain Light Rain
9:06 AM 50.0 °F 46.4 °F 87% 29.59 in 2.0 mi ENE 12.7 mph 19.6 mph 0.01 in Rain Light Rain
9:11 AM 50.0 °F 46.4 °F 87% 29.59 in 1.8 mi ENE 11.5 mph 23.0 mph 0.02 in Rain Light Rain
9:32 AM 50.0 °F 48.2 °F 94% 29.58 in 2.5 mi ENE 12.7 mph 19.6 mph 0.03 in Rain Light Rain
9:41 AM 50.0 °F 48.2 °F 94% 29.58 in 3.0 mi East 10.4 mph 19.6 mph 0.03 in Rain Light Rain
9:54 AM 50.0 °F 48.0 °F 93% 29.59 in 5.0 mi East 12.7 mph 24.2 mph 0.03 in Rain Light Rain
10:11 AM 50.0 °F 48.2 °F 94% 29.58 in 2.5 mi East 11.5 mph 19.6 mph 0.01 in Rain Light Rain
10:29 AM 50.0 °F 48.2 °F 94% 29.57 in 4.0 mi East 9.2 mph - 0.01 in Rain Light Rain
10:40 AM 51.8 °F 48.2 °F 88% 29.57 in 8.0 mi ENE 10.4 mph - 0.01 in Rain Light Rain
10:54 AM 51.1 °F 46.9 °F 86% 29.57 in 7.0 mi East 8.1 mph - 0.01 in Rain Light Rain
11:03 AM 51.8 °F 46.4 °F 82% 29.56 in 10.0 mi ENE 10.4 mph - 0.01 in Rain Light Rain
11:54 AM 52.0 °F 46.9 °F 83% 29.56 in 10.0 mi East 9.2 mph 17.3 mph 0.01 in Rain Light Rain
12:10 PM 51.8 °F 46.4 °F 82% 29.55 in 9.0 mi ENE 10.4 mph 19.6 mph 0.00 in Rain Light Rain
12:54 PM 51.1 °F 48.0 °F 89% 29.55 in 4.0 mi ENE 10.4 mph 20.7 mph 0.03 in Rain Light Rain
1:41 PM 51.8 °F 48.2 °F 88% 29.52 in 3.0 mi ENE 10.4 mph 19.6 mph 0.06 in Rain Rain
1:54 PM 51.1 °F 48.0 °F 89% 29.53 in 2.5 mi East 12.7 mph 17.3 mph 0.08 in Rain Rain
2:10 PM 51.8 °F 48.2 °F 88% 29.52 in 3.0 mi East 10.4 mph - 0.03 in Rain Rain
2:21 PM 51.8 °F 48.2 °F 88% 29.51 in 3.0 mi ENE 9.2 mph 16.1 mph 0.05 in Rain Rain
2:33 PM 51.8 °F 48.2 °F 88% 29.51 in 5.0 mi East 8.1 mph - 0.06 in Rain Light Rain
2:41 PM 51.8 °F 48.2 °F 88% 29.51 in 5.0 mi East 8.1 mph - 0.07 in Rain Rain
2:54 PM 51.1 °F 48.0 °F 89% 29.51 in 4.0 mi ENE 9.2 mph - 0.10 in Rain Rain
3:54 PM 51.1 °F 48.9 °F 92% 29.49 in 4.0 mi East 6.9 mph - 0.14 in Rain Rain
4:52 PM 51.8 °F 48.2 °F 88% 29.46 in 3.0 mi ENE 8.1 mph - 0.16 in Rain Rain
4:54 PM 51.1 °F 48.0 °F 89% 29.47 in 4.0 mi East 6.9 mph - 0.16 in Rain Rain
5:54 PM 50.0 °F 48.0 °F 93% 29.43 in 3.0 mi East 6.9 mph - 0.20 in Rain Rain
6:05 PM 50.0 °F 48.2 °F 94% 29.42 in 4.0 mi East 5.8 mph - 0.03 in Rain Rain
6:54 PM 50.0 °F 48.0 °F 93% 29.38 in 4.0 mi Variable 5.8 mph - 0.17 in Rain Rain
7:40 PM 48.2 °F 48.2 °F 100% 29.34 in 5.0 mi ESE 8.1 mph - 0.11 in Rain Rain
7:52 PM 48.2 °F 48.2 °F 100% 29.33 in 5.0 mi Variable 5.8 mph 16.1 mph 0.14 in Rain Rain
7:54 PM 48.9 °F 48.0 °F 97% 29.34 in 5.0 mi Variable 4.6 mph 16.1 mph 0.14 in Rain Rain
8:18 PM 48.2 °F 48.2 °F 100% 29.33 in 6.0 mi Variable 6.9 mph 19.6 mph 0.05 in Rain Rain
8:54 PM 50.0 °F 46.9 °F 89% 29.29 in 4.0 mi SE 12.7 mph 17.3 mph 0.19 in Rain Heavy Rain
9:54 PM 50.0 °F 46.9 °F 89% 29.26 in 5.0 mi SE 12.7 mph 26.5 mph 0.15 in Rain Rain
10:54 PM 48.9 °F 48.0 °F 97% 29.25 in 3.0 mi ESE 12.7 mph 19.6 mph 0.27 in Rain Heavy Rain
11:54 PM 53.1 °F 48.9 °F 86% 29.26 in 3.0 mi East 10.4 mph 21.9 mph 0.25 in Rain Heavy Rain